Terug naar catalogus

DELTA 1 DEB

ActiefSSO
NORAD 12164·DEBRIS·🇺🇸 United States

Gelanceerd Mar 5, 1978 vanaf Vandenberg Space Force Base

Loading…

Volgende Passages (komende 24 uur)

TLE

VersSource: Space-Track

Epoch: Sep 14, 2026, 08:39 UTC

1 12164U 78026D   26257.36055882  .00000789  00000-0  24820-3 0  9999
2 12164  98.6022 293.7931 0058504 189.9743 235.9326 14.42225612519969

Volg DELTA 1 DEB in realtime met AllMySat

Download on the App Store